Location: Wells
(51.2093°N, 2.6446°W)
Time: 08:46:26
(UTC+01:00)

SO-50 - Pass Details

Date: 17 March 2026
Orbit: 567 x 673 km, 64.6° (Epoch: 17 April)

Event Time Altitude Azimuth Distance (km) Brightness Sun altitude
Rises 20:32:52 0° 277° (W) 2,984 ? -21.1°
Reaches altitude 10° 20:35:42 10° 294° (WNW) 2,088 ? -21.5°
Maximum altitude 20:39:15 20° 342° (NNW) 1,525 ? -22.0°
Drops below altitude 10° 20:42:51 10° 31° (NNE) 2,114 ? -22.5°
Enters shadow 20:44:12 - 40° (NE) 2,519 ? -22.7°
